Regional Weather Roundup
Issued by NWS

Home | Current Version | Previous Version | Text Only | Print | Product List | Glossary On
Versions: 1 2 3 4 5 6 7 8 9 10 11 12 13 14 15 16 17 18 19 20 21 22 23 24 25 26 27 28 29 30 31 32 33 34 35 36 37 38 39 40 41 42 43 44 45 46 47 48 49 50
479
ASUS43 KIND 240109
RWRIN

WEATHER ROUNDUP FOR INDIANA
NATIONAL WEATHER SERVICE INDIANAPOLIS IN
800 PM EST MON JAN 23 2017

NOTE: "FAIR" INDICATES FEW OR NO CLOUDS BELOW 12,000 FEET WITH NO
SIGNIFICANT WEATHER AND/OR OBSTRUCTIONS TO VISIBILITY.

* - STATION DOES NOT REPORT WEATHER SUCH AS PRECIPITATION OR FOG.

+ - STATION NOT QUALITY CONTROLLED BY THE NATIONAL WEATHER SERVICE.
    USE DATA WITH CAUTION...ESPECIALLY DEWPOINT AND RELATIVE
    HUMIDITY OBSERVATIONS.

INZ001>003-010>013-019-020-240200-
NORTHWEST INDIANA

CITY           SKY/WX    TMP DP  RH WIND       PRES   REMARKS
GARY /AIRPORT/ CLOUDY    41  34  75 N8        29.78R
KNOX *+        CLOUDY    37  28  70 NW8       29.76R
LA PORTE +     CLOUDY    37  37  97 N10       29.76S FOG
MICHIGAN CITY+ CLOUDY    36  36 100 N8        29.78R
MONTICELLO +   CLOUDY    38  36  94 N12       29.75R
RENSSELAER +     N/A     39  37  93 NW5       29.78R
VALPARAISO     CLOUDY    39  38  96 N8        29.76R

$$

LMZ046-743>745-240200-
SOUTHERN LAKE MICHIGAN

STATION/POSITION TIME  TEMP    WIND        PRES    WAVE
                       AIR SEA DIR/SP/G            HT
                 (UTC) (F)     (DEG/KT/KT) (MB)    (FT)
BURNS HARBOR     0040   36      10/  6/  8 1009.1R
MICHIGAN CITY    0040   36     330/ 10/ 10   N/A

$$

INZ004-005-014>016-021>024-240200-
NORTH CENTRAL INDIANA

CITY           SKY/WX    TMP DP  RH WIND       PRES   REMARKS
ELKHART        CLOUDY    39  37  93 NW10      29.74R FOG
GOSHEN         CLOUDY    40  37  89 NW10      29.73R FOG
LOGANSPORT +   CLOUDY    37  36  93 NW10      29.75S FOG
PERU/GRISSOM   DRIZZLE   39  39 100 NW12      29.72R FOG
ROCHESTER +    CLOUDY    41  41 100 N12       29.74R FOG
SOUTH BEND     CLOUDY    38  37  97 NW13      29.76R
WARSAW +       CLOUDY    37  37 100 NW8       29.73R FOG

$$

INZ006>009-017-018-025>027-240200-
NORTHEAST INDIANA

CITY           SKY/WX    TMP DP  RH WIND       PRES   REMARKS
ANGOLA *+      CLOUDY    43  32  65 NW3       29.70R
AUBURN +       RAIN      43  39  87 CALM      29.71R
FORT WAYNE     LGT RAIN  43  41  93 NW6       29.71R
HUNTINGTON +   CLOUDY    40  39  96 NW7       29.72R
KENDALLVILLE + LGT RAIN  41  41 100 NW5       29.71R

$$

INZ028-029-035-036-043>045-051>053-240200-
WEST CENTRAL INDIANA

CITY           SKY/WX    TMP DP  RH WIND       PRES   REMARKS
CRAWFORDSVL +  CLOUDY    37  37 100 NW12      29.76R FOG
GREENCASTLE +  CLOUDY    37  36  93 NW12G17   29.77R FOG
LAFAYETTE      CLOUDY    38  37  97 N10       29.77R
TERRE HAUTE    CLOUDY    40  34  79 N12       29.80R

$$

INZ030>032-037>040-046>048-054>057-064-065-240200-
CENTRAL INDIANA

CITY           SKY/WX    TMP DP  RH WIND       PRES   REMARKS
CP ATTERBURY + CLOUDY    41  37  87 NW14      29.73R FOG
COLUMBUS       LGT RAIN  41  41 100 NW12      29.73R FOG
FISHERS *+     CLOUDY    37  37 100 NW9       29.73
FRANKFORT +    CLOUDY    41  39  93 N12       29.76R FOG
GREENWOOD *+   CLOUDY    41  41  98 NW9       29.73R
INDIANAPOLIS   DRIZZLE   40  38  93 N12       29.74R FOG
-EAGLE CREEK   CLOUDY    41  38  89 N16       29.73R FOG
KOKOMO +       CLOUDY    39  38  96 NW14      29.74R FOG
MARION +       CLOUDY    39  39 100 NW9       29.73R FOG
MT COMFORT *+  CLOUDY    39  39 100 N8        29.73R
SHELBYVILLE    CLOUDY    42  39  89 NW13      29.71R FOG
ZIONSVILLE +   CLOUDY    38  37  97 NW13      29.74R FOG

$$

INZ033-034-041-042-049-050-058-059-240200-
EAST CENTRAL INDIANA

CITY           SKY/WX    TMP DP  RH WIND       PRES   REMARKS
MUNCIE         LGT RAIN  43  41  93 NW13      29.70R

$$

INZ060-061-067>069-081>083-085>088-240200-
SOUTHWEST INDIANA

CITY           SKY/WX    TMP DP  RH WIND       PRES   REMARKS
EVANSVILLE     CLOUDY    42  35  76 NW8       29.81R
HUNTINGBURG *+ CLOUDY    41  36  82 NW14      29.79R
WASHINGTON +   CLOUDY    40  36  84 NW14      29.79R

$$

INZ062-063-066-070>080-084-089>092-240200-
SOUTH CENTRAL AND SOUTHEAST INDIANA

CITY           SKY/WX    TMP DP  RH WIND       PRES   REMARKS
BEDFORD +      CLOUDY    41  36  81 W6        29.74
BLOOMINGTON    CLOUDY    40  36  86 NW7       29.75R
MADISON *+     CLOUDY    43  41  93 NW12      29.72R
NORTH VERNON + CLOUDY   N/A N/A N/A NW14      29.71R HAZE

$$





USA.gov is the U.S. government's official web portal to all federal, state and local government web resources and services.